,,,PA_Meas_PMT16A,,PR_Meas_QMR101_102,,RH_Meas_QMH101,,SR_Meas_QMS101,,TA_Meas_QMH101,,GenWind,,GenWind,
date,time,status,PA,status,PR,status,RH,status,SR,status,TA,status,DirAvg,status,SpdAvg,
2012-07-23, 00:00:05,VALID,1008.64,VALID,0,VALID,86.8878,VALID,0,VALID,26.1481,VALID,206,VALID,0.502734,
2012-07-23, 00:01:05,VALID,1008.67,VALID,0,VALID,86.4227,VALID,0,VALID,26.1696,VALID,193,VALID,0.434766,
2012-07-23, 00:02:05,VALID,1008.67,VALID,0,VALID,86.1481,VALID,0,VALID,26.1891,VALID,195,VALID,0.0660156,
2012-07-23, 00:03:05,VALID,1008.71,VALID,0,VALID,85.8889,VALID,0,VALID,26.1891,VALID,195,VALID,0.674609,
2012-07-23, 00:04:05,VALID,1008.72,VALID,0,VALID,85.7745,VALID,0,VALID,26.2086,VALID,197,VALID,1.11602,
2012-07-23, 00:05:05,VALID,1008.72,VALID,0,VALID,85.8507,VALID,0,VALID,26.2086,VALID,180,VALID,0.664453,
2012-07-23, 00:06:05,VALID,1008.73,VALID,0,VALID,85.9804,VALID,0,VALID,26.1891,VALID,173,VALID,0.669922,
2012-07-23, 00:07:05,VALID,1008.77,VALID,0,VALID,85.3627,VALID,0,VALID,26.2281,VALID,241,VALID,0.744531,
2012-07-23, 00:08:05,VALID,1008.73,VALID,0,VALID,85.4466,VALID,0,VALID,26.2456,VALID,210,VALID,0.300391,
2012-07-23, 00:09:05,VALID,1008.78,VALID,0,VALID,85.1644,VALID,0,VALID,26.2866,VALID,210,VALID,0.319922,
2012-07-23, 00:10:05,VALID,1008.79,VALID,0,VALID,85.3932,VALID,0,VALID,26.2866,VALID,223,VALID,0.762891,
2012-07-23, 00:11:05,VALID,1008.79,VALID,0,VALID,85.0882,VALID,0,VALID,26.3061,VALID,234,VALID,0.615234,
2012-07-23, 00:12:05,VALID,1008.8,VALID,0,VALID,84.4247,VALID,0,VALID,26.3256,VALID,211,VALID,1.32422,
2012-07-23, 00:13:05,VALID,1008.81,VALID,0,VALID,84.0968,VALID,0,VALID,26.3841,VALID,222,VALID,0.833984,
2012-07-23, 00:14:05,VALID,1008.82,VALID,0,VALID,83.6011,VALID,0,VALID,26.4016,VALID,221,VALID,0.778906,
2012-07-23, 00:15:05,VALID,1008.83,VALID,0,VALID,83.7231,VALID,0,VALID,26.4231,VALID,220,VALID,0.951172,
2012-07-23, 00:16:05,VALID,1008.81,VALID,0,VALID,83.1055,VALID,0,VALID,26.4621,VALID,202,VALID,1.17305,
2012-07-23, 00:17:05,VALID,1008.81,VALID,0,VALID,83.1131,VALID,0,VALID,26.4816,VALID,212,VALID,0.842969,
2012-07-23, 00:18:05,VALID,1008.79,VALID,0,VALID,83.1817,VALID,0,VALID,26.4816,VALID,203,VALID,1.08242,
2012-07-23, 00:19:05,VALID,1008.8,VALID,0,VALID,83.3266,VALID,0,VALID,26.4621,VALID,189,VALID,0.646094,
2012-07-23, 00:20:05,VALID,1008.82,VALID,0,VALID,83.197,VALID,0,VALID,26.4426,VALID,227,VALID,0.952734,
2012-07-23, 00:21:05,VALID,1008.82,VALID,0,VALID,83.4944,VALID,0,VALID,26.4426,VALID,166,VALID,0.60625,
2012-07-23, 00:22:05,VALID,1008.83,VALID,0,VALID,83.6316,VALID,0,VALID,26.4036,VALID,167,VALID,0.710938,
2012-07-23, 00:23:05,VALID,1008.84,VALID,0,VALID,83.7918,VALID,0,VALID,26.3841,VALID,169,VALID,0,
2012-07-23, 00:24:05,VALID,1008.82,VALID,0,VALID,83.7918,VALID,0,VALID,26.3841,VALID,183,VALID,0.4125,
2012-07-23, 00:25:05,VALID,1008.84,VALID,0,VALID,83.8528,VALID,0,VALID,26.3646,VALID,183,VALID,0.605469,
2012-07-23, 00:26:05,VALID,1008.86,VALID,0,VALID,83.8223,VALID,0,VALID,26.3236,VALID,183,VALID,0.0101562,
2012-07-23, 00:27:05,VALID,1008.85,VALID,0,VALID,83.9062,VALID,0,VALID,26.3451,VALID,213,VALID,0.609375,
2012-07-23, 00:28:05,VALID,1008.82,VALID,0,VALID,84.0739,VALID,0,VALID,26.3256,VALID,213,VALID,0.182031,
2012-07-23, 00:29:05,VALID,1008.85,VALID,0,VALID,84.2798,VALID,0,VALID,26.2866,VALID,213,VALID,0.203516,
2012-07-23, 00:30:05,VALID,1008.8,VALID,0,VALID,84.0816,VALID,0,VALID,26.2866,VALID,177,VALID,0.40625,
2012-07-23, 00:31:05,VALID,1008.82,VALID,0,VALID,84.4171,VALID,0,VALID,26.2671,VALID,188,VALID,0.311328,
2012-07-23, 00:32:05,VALID,1008.82,VALID,0,VALID,84.44,VALID,0,VALID,26.2671,VALID,188,VALID,0.185937,
2012-07-23, 00:33:05,VALID,1008.84,VALID,0,VALID,85.2178,VALID,0,VALID,26.2281,VALID,188,VALID,0.0832031,
2012-07-23, 00:34:05,VALID,1008.82,VALID,0,VALID,84.989,VALID,0,VALID,26.2086,VALID,188,VALID,0,
2012-07-23, 00:35:05,VALID,1008.83,VALID,0,VALID,85.8736,VALID,0,VALID,26.1891,VALID,188,VALID,0.223438,
2012-07-23, 00:36:05,VALID,1008.82,VALID,0,VALID,86.5981,VALID,0,VALID,26.1501,VALID,188,VALID,0.185547,
2012-07-23, 00:37:05,VALID,1008.8,VALID,0,VALID,87.5742,VALID,0,VALID,26.0721,VALID,188,VALID,0.285547,
2012-07-23, 00:38:05,VALID,1008.79,VALID,0,VALID,89.0764,VALID,0,VALID,25.9941,VALID,188,VALID,0,
2012-07-23, 00:39:05,VALID,1008.75,VALID,0,VALID,90.4872,VALID,0,VALID,25.9161,VALID,188,VALID,0,
2012-07-23, 00:40:05,VALID,1008.7,VALID,0,VALID,91.5472,VALID,0,VALID,25.8576,VALID,188,VALID,0,
2012-07-23, 00:41:05,VALID,1008.71,VALID,0,VALID,92.264,VALID,0.112112,VALID,25.7971,VALID,188,VALID,0,
2012-07-23, 00:42:05,VALID,1008.66,VALID,0,VALID,92.6376,VALID,0,VALID,25.7601,VALID,188,VALID,0,
2012-07-23, 00:43:05,VALID,1008.66,VALID,0,VALID,93.5146,VALID,0,VALID,25.7211,VALID,188,VALID,0,
2012-07-23, 00:44:05,VALID,1008.63,VALID,0,VALID,94.2924,VALID,0,VALID,25.6607,VALID,188,VALID,0,
2012-07-23, 00:45:05,VALID,1008.65,VALID,0,VALID,94.9178,VALID,0,VALID,25.6431,VALID,188,VALID,0,
2012-07-23, 00:46:05,VALID,1008.65,VALID,0,VALID,95.2457,VALID,0,VALID,25.6431,VALID,192,VALID,0.548437,
2012-07-23, 00:47:05,VALID,1008.65,VALID,0,VALID,95.4058,VALID,0,VALID,25.7016,VALID,190,VALID,0.664844,
2012-07-23, 00:48:05,VALID,1008.65,VALID,0,VALID,95.4592,VALID,0,VALID,25.7016,VALID,190,VALID,0.0976563,
2012-07-23, 00:49:05,VALID,1008.67,VALID,0,VALID,95.5278,VALID,0,VALID,25.7016,VALID,190,VALID,0,
2012-07-23, 00:50:05,VALID,1008.64,VALID,0,VALID,95.5049,VALID,0,VALID,25.6626,VALID,190,VALID,0,
2012-07-23, 00:51:05,VALID,1008.59,VALID,0,VALID,95.7185,VALID,0,VALID,25.6217,VALID,190,VALID,0,
2012-07-23, 00:52:05,VALID,1008.6,VALID,0,VALID,96.115,VALID,0,VALID,25.6022,VALID,190,VALID,0,
2012-07-23, 00:53:05,VALID,1008.57,VALID,0,VALID,96.4734,VALID,0,VALID,25.6022,VALID,190,VALID,0,
2012-07-23, 00:54:05,VALID,1008.55,VALID,0,VALID,97.1292,VALID,0,VALID,25.6041,VALID,190,VALID,0,
2012-07-23, 00:55:05,VALID,1008.54,VALID,0,VALID,97.6859,VALID,0,VALID,25.5671,VALID,176,VALID,0.515625,
2012-07-23, 00:56:05,VALID,1008.54,VALID,0,VALID,97.9147,VALID,0.112112,VALID,25.5261,VALID,174,VALID,0.235938,
2012-07-23, 00:57:05,VALID,1008.52,VALID,0,VALID,98.2197,VALID,0,VALID,25.4677,VALID,174,VALID,0.360938,
2012-07-23, 00:58:05,VALID,1008.49,VALID,0,VALID,98.6925,VALID,0,VALID,25.4287,VALID,174,VALID,0.395312,
2012-07-23, 00:59:05,VALID,1008.5,VALID,0,VALID,99.2644,VALID,0,VALID,25.4092,VALID,174,VALID,0.552734,
2012-07-23, 01:00:05,VALID,1008.49,VALID,0,VALID,99.3864,VALID,0,VALID,25.4287,VALID,174,VALID,0.363281,
2012-07-23, 01:01:05,VALID,1008.47,VALID,0,VALID,99.5695,VALID,0,VALID,25.4287,VALID,174,VALID,0.380859,
2012-07-23, 01:02:05,VALID,1008.49,VALID,0,VALID,99.6838,VALID,0,VALID,25.4482,VALID,174,VALID,0.570313,
2012-07-23, 01:03:05,VALID,1008.45,VALID,0,VALID,99.6838,VALID,0,VALID,25.4462,VALID,158,VALID,0.577734,
2012-07-23, 01:04:05,VALID,1008.47,VALID,0,VALID,99.7601,VALID,0,VALID,25.4871,VALID,158,VALID,0.646484,
2012-07-23, 01:05:05,VALID,1008.41,VALID,0,VALID,99.4093,VALID,0,VALID,25.4871,VALID,155,VALID,0.513672,
2012-07-23, 01:06:05,VALID,1008.39,VALID,0,VALID,99.7067,VALID,0.112112,VALID,25.5066,VALID,155,VALID,0.650391,
2012-07-23, 01:07:05,VALID,1008.39,VALID,0,VALID,99.783,VALID,0,VALID,25.5066,VALID,155,VALID,0.533984,
2012-07-23, 01:08:05,VALID,1008.36,VALID,0,VALID,99.8821,VALID,0,VALID,25.5066,VALID,155,VALID,0.658594,
2012-07-23, 01:09:05,VALID,1008.34,VALID,0,VALID,99.9126,VALID,0,VALID,25.5066,VALID,155,VALID,0.564453,
2012-07-23, 01:10:05,VALID,1008.35,VALID,0,VALID,99.722,VALID,0,VALID,25.5261,VALID,180,VALID,0.777734,
2012-07-23, 01:11:05,VALID,1008.34,VALID,0,VALID,99.6076,VALID,0,VALID,25.5456,VALID,180,VALID,0.637891,
2012-07-23, 01:12:05,VALID,1008.34,VALID,0,VALID,99.2187,VALID,0,VALID,25.5456,VALID,195,VALID,0.795703,
2012-07-23, 01:13:05,VALID,1008.33,VALID,0,VALID,98.6925,VALID,0,VALID,25.5632,VALID,188,VALID,0.513281,
2012-07-23, 01:14:05,VALID,1008.34,VALID,0,VALID,97.7927,VALID,0,VALID,25.6236,VALID,190,VALID,0.441797,
2012-07-23, 01:15:05,VALID,1008.32,VALID,0,VALID,96.7022,VALID,0,VALID,25.6626,VALID,195,VALID,0.841406,
2012-07-23, 01:16:05,VALID,1008.33,VALID,0,VALID,95.5888,VALID,0,VALID,25.7016,VALID,207,VALID,0.6375,
2012-07-23, 01:17:05,VALID,1008.3,VALID,0,VALID,94.5212,VALID,0.112112,VALID,25.7192,VALID,192,VALID,1.03633,
2012-07-23, 01:18:05,VALID,1008.29,VALID,0,VALID,93.1715,VALID,0,VALID,25.7776,VALID,210,VALID,0.278125,
2012-07-23, 01:19:05,VALID,1008.34,VALID,0,VALID,92.4775,VALID,0,VALID,25.8381,VALID,210,VALID,0.304688,
2012-07-23, 01:20:05,VALID,1008.3,VALID,0,VALID,91.8141,VALID,0,VALID,25.8576,VALID,240,VALID,0.268359,
2012-07-23, 01:21:05,VALID,1008.3,VALID,0,VALID,91.3031,VALID,0,VALID,25.8576,VALID,242,VALID,0.254687,
2012-07-23, 01:22:05,VALID,1008.31,VALID,0,VALID,90.5253,VALID,0,VALID,25.8966,VALID,218,VALID,0.230469,
2012-07-23, 01:23:05,VALID,1008.3,VALID,0,VALID,89.8161,VALID,0.112112,VALID,25.8946,VALID,228,VALID,0.885938,
2012-07-23, 01:24:05,VALID,1008.33,VALID,0,VALID,88.9392,VALID,0,VALID,25.9746,VALID,216,VALID,0.849219,
2012-07-23, 01:25:05,VALID,1008.35,VALID,0,VALID,88.1766,VALID,0,VALID,26.0136,VALID,212,VALID,0.496484,
2012-07-23, 01:26:05,VALID,1008.37,VALID,0,VALID,87.6428,VALID,0,VALID,26.0116,VALID,226,VALID,0.676953,
2012-07-23, 01:27:05,VALID,1008.37,VALID,0,VALID,87.231,VALID,0,VALID,26.0506,VALID,195,VALID,0.956641,
2012-07-23, 01:28:05,VALID,1008.37,VALID,0,VALID,86.5981,VALID,0,VALID,26.0721,VALID,186,VALID,1.04766,
2012-07-23, 01:29:05,VALID,1008.35,VALID,0,VALID,86.4837,VALID,0.112112,VALID,26.0896,VALID,184,VALID,0.084375,
2012-07-23, 01:30:05,VALID,1008.38,VALID,0,VALID,86.3998,VALID,0,VALID,26.0701,VALID,184,VALID,0.471094,
2012-07-23, 01:31:05,VALID,1008.37,VALID,0,VALID,86.0795,VALID,0.112112,VALID,26.0701,VALID,186,VALID,1.07891,
2012-07-23, 01:32:05,VALID,1008.34,VALID,0,VALID,85.9804,VALID,0,VALID,26.0701,VALID,159,VALID,0.683594,
2012-07-23, 01:33:05,VALID,1008.34,VALID,0,VALID,85.9422,VALID,0,VALID,26.0721,VALID,159,VALID,0.310547,
2012-07-23, 01:34:05,VALID,1008.33,VALID,0,VALID,86.1329,VALID,0,VALID,26.0526,VALID,159,VALID,0,
2012-07-23, 01:35:05,VALID,1008.3,VALID,0,VALID,86.3159,VALID,0,VALID,26.0136,VALID,159,VALID,0,
2012-07-23, 01:36:05,VALID,1008.3,VALID,0,VALID,86.6819,VALID,0.112112,VALID,25.9941,VALID,159,VALID,0,
2012-07-23, 01:37:05,VALID,1008.27,VALID,0,VALID,87.1852,VALID,0,VALID,25.9551,VALID,159,VALID,0,
2012-07-23, 01:38:05,VALID,1008.29,VALID,0,VALID,88.2376,VALID,0,VALID,25.9356,VALID,159,VALID,0.0933594,
2012-07-23, 01:39:05,VALID,1008.29,VALID,0,VALID,89.5797,VALID,0,VALID,25.8771,VALID,159,VALID,0,
2012-07-23, 01:40:05,VALID,1008.29,VALID,0,VALID,90.8609,VALID,0,VALID,25.8186,VALID,159,VALID,0.221484,
2012-07-23, 01:41:05,VALID,1008.29,VALID,0,VALID,91.959,VALID,0,VALID,25.7387,VALID,159,VALID,0,
2012-07-23, 01:42:05,VALID,1008.29,VALID,0,VALID,93.1943,VALID,0,VALID,25.6626,VALID,159,VALID,0,
2012-07-23, 01:43:05,VALID,1008.29,VALID,0,VALID,94.811,VALID,0,VALID,25.5827,VALID,159,VALID,0.142578,
2012-07-23, 01:44:05,VALID,1008.29,VALID,0,VALID,97.1445,VALID,0.112112,VALID,25.4852,VALID,159,VALID,0.195703,
2012-07-23, 01:45:05,VALID,1008.26,VALID,0,VALID,98.845,VALID,0,VALID,25.4287,VALID,159,VALID,0,
2012-07-23, 01:46:04,VALID,1008.27,VALID,0,VALID,99.6457,VALID,0,VALID,25.3488,VALID,159,VALID,0,
2012-07-23, 01:47:04,VALID,1008.27,VALID,0,VALID,100.103,VALID,0,VALID,25.2903,VALID,159,VALID,0,
2012-07-23, 01:48:04,VALID,1008.28,VALID,0,VALID,100.469,VALID,0,VALID,25.2318,VALID,159,VALID,0,
2012-07-23, 01:49:04,VALID,1008.25,VALID,0,VALID,100.759,VALID,0.112112,VALID,25.2142,VALID,159,VALID,0,
2012-07-23, 01:50:04,VALID,1008.24,VALID,0,VALID,101.049,VALID,0,VALID,25.1752,VALID,185,VALID,0.275391,
2012-07-23, 01:51:04,VALID,1008.21,VALID,0,VALID,101.476,VALID,0.112112,VALID,25.2337,VALID,206,VALID,0.628906,
2012-07-23, 01:52:04,VALID,1008.17,VALID,0,VALID,101.285,VALID,0,VALID,25.2922,VALID,180,VALID,0.2375,
2012-07-23, 01:53:04,VALID,1008.17,VALID,0,VALID,101.026,VALID,0,VALID,25.2922,VALID,180,VALID,0.266016,
2012-07-23, 01:54:04,VALID,1008.15,VALID,0,VALID,100.927,VALID,0,VALID,25.3117,VALID,180,VALID,0.0175781,
2012-07-23, 01:55:04,VALID,1008.13,VALID,0,VALID,100.851,VALID,0,VALID,25.2922,VALID,180,VALID,0,
2012-07-23, 01:56:04,VALID,1008.09,VALID,0,VALID,100.774,VALID,0,VALID,25.2903,VALID,180,VALID,0,
2012-07-23, 01:57:04,VALID,1008.1,VALID,0,VALID,100.896,VALID,0,VALID,25.3507,VALID,180,VALID,0,
2012-07-23, 01:58:04,VALID,1008.09,VALID,0,VALID,100.767,VALID,0,VALID,25.3683,VALID,181,VALID,0,
2012-07-23, 01:59:04,VALID,1008.08,VALID,0,VALID,100.5,VALID,0.112112,VALID,25.4072,VALID,181,VALID,0,
2012-07-23, 02:00:04,VALID,1008.05,VALID,0,VALID,100.218,VALID,0,VALID,25.4871,VALID,186,VALID,0.6375,
2012-07-23, 02:01:04,VALID,1008.04,VALID,0,VALID,99.7677,VALID,0,VALID,25.5261,VALID,189,VALID,0.634766,
2012-07-23, 02:02:04,VALID,1008.04,VALID,0,VALID,99.2034,VALID,0.112112,VALID,25.5651,VALID,190,VALID,0.629297,
2012-07-23, 02:03:04,VALID,1008.02,VALID,0,VALID,98.8221,VALID,0,VALID,25.5437,VALID,191,VALID,0.725391,
2012-07-23, 02:04:04,VALID,1008,VALID,0,VALID,98.0977,VALID,0,VALID,25.5846,VALID,191,VALID,0.194922,
2012-07-23, 02:05:04,VALID,1008,VALID,0,VALID,97.4724,VALID,0.112112,VALID,25.6041,VALID,191,VALID,0.4875,
2012-07-23, 02:06:04,VALID,1007.99,VALID,0,VALID,97.3199,VALID,0.112112,VALID,25.5846,VALID,191,VALID,0.341406,
2012-07-23, 02:07:04,VALID,1007.98,VALID,0,VALID,97.1368,VALID,0,VALID,25.5846,VALID,191,VALID,0,
2012-07-23, 02:08:04,VALID,1007.98,VALID,0,VALID,97.419,VALID,0,VALID,25.5632,VALID,191,VALID,0,
2012-07-23, 02:09:04,VALID,1007.97,VALID,0,VALID,97.785,VALID,0,VALID,25.5846,VALID,190,VALID,0.463672,
2012-07-23, 02:10:04,VALID,1007.98,VALID,0,VALID,98.0977,VALID,0,VALID,25.5846,VALID,182,VALID,0.716016,
2012-07-23, 02:11:04,VALID,1007.98,VALID,0,VALID,98.3951,VALID,0,VALID,25.5846,VALID,184,VALID,0.685156,
2012-07-23, 02:12:04,VALID,1007.99,VALID,0,VALID,98.1663,VALID,0.112112,VALID,25.6022,VALID,197,VALID,0.912891,
2012-07-23, 02:13:04,VALID,1007.97,VALID,0,VALID,97.2741,VALID,0,VALID,25.6626,VALID,193,VALID,0.421875,
2012-07-23, 02:14:04,VALID,1007.97,VALID,0,VALID,96.0845,VALID,0,VALID,25.6626,VALID,192,VALID,0.223828,
2012-07-23, 02:15:04,VALID,1007.95,VALID,0,VALID,95.932,VALID,0.112112,VALID,25.6431,VALID,192,VALID,0.300391,
2012-07-23, 02:16:04,VALID,1007.94,VALID,0,VALID,96.2599,VALID,0.112112,VALID,25.6236,VALID,174,VALID,0.728516,
2012-07-23, 02:17:04,VALID,1007.96,VALID,0,VALID,96.4887,VALID,0,VALID,25.6022,VALID,174,VALID,1.01641,
2012-07-23, 02:18:04,VALID,1007.97,VALID,0,VALID,96.3971,VALID,0.112112,VALID,25.6236,VALID,153,VALID,0.712109,
2012-07-23, 02:19:04,VALID,1007.97,VALID,0,VALID,96.2828,VALID,0.112112,VALID,25.6236,VALID,171,VALID,0.705469,
2012-07-23, 02:20:04,VALID,1007.96,VALID,0,VALID,96.7098,VALID,0,VALID,25.5827,VALID,163,VALID,1.14141,
2012-07-23, 02:21:04,VALID,1007.98,VALID,0,VALID,96.603,VALID,0,VALID,25.6236,VALID,145,VALID,0.966797,
2012-07-23, 02:22:04,VALID,1007.99,VALID,0,VALID,96.5192,VALID,0,VALID,25.6236,VALID,150,VALID,0.685547,
2012-07-23, 02:23:04,VALID,1008,VALID,0,VALID,97.0606,VALID,0.112112,VALID,25.5846,VALID,152,VALID,1.06562,
2012-07-23, 02:24:04,VALID,1007.99,VALID,0,VALID,97.785,VALID,0.112112,VALID,25.6041,VALID,152,VALID,0.714453,
2012-07-23, 02:25:04,VALID,1008,VALID,0,VALID,98.4714,VALID,0,VALID,25.5846,VALID,117,VALID,0.831641,
2012-07-23, 02:26:04,VALID,1007.99,VALID,0,VALID,99.0585,VALID,0,VALID,25.5846,VALID,139,VALID,1.53828,
2012-07-23, 02:27:04,VALID,1008,VALID,0,VALID,99.2416,VALID,0.112112,VALID,25.5846,VALID,157,VALID,0.542188,
2012-07-23, 02:28:04,VALID,1007.98,VALID,0,VALID,99.3788,VALID,0,VALID,25.5651,VALID,133,VALID,0.8875,
2012-07-23, 02:29:04,VALID,1007.96,VALID,0,VALID,99.5237,VALID,0.112112,VALID,25.5456,VALID,134,VALID,0.630469,
2012-07-23, 02:30:04,VALID,1007.97,VALID,0,VALID,99.6762,VALID,0,VALID,25.5242,VALID,134,VALID,0.9125,
2012-07-23, 02:31:04,VALID,1007.98,VALID,0,VALID,99.7982,VALID,0,VALID,25.5066,VALID,132,VALID,0.7375,
2012-07-23, 02:32:04,VALID,1007.94,VALID,0,VALID,99.9965,VALID,0,VALID,25.5066,VALID,132,VALID,0.879297,
2012-07-23, 02:33:04,VALID,1007.95,VALID,0,VALID,100.21,VALID,0.112112,VALID,25.4871,VALID,132,VALID,0.572656,
2012-07-23, 02:34:04,VALID,1007.96,VALID,0,VALID,100.263,VALID,0,VALID,25.4657,VALID,132,VALID,0.625,
2012-07-23, 02:35:04,VALID,1007.94,VALID,0,VALID,100.309,VALID,0,VALID,25.4871,VALID,132,VALID,0.299609,
2012-07-23, 02:36:04,VALID,1007.95,VALID,0,VALID,100.446,VALID,0.112112,VALID,25.4482,VALID,135,VALID,0.873438,
2012-07-23, 02:37:04,VALID,1007.97,VALID,0,VALID,100.53,VALID,0,VALID,25.4482,VALID,137,VALID,0.421875,
2012-07-23, 02:38:04,VALID,1007.99,VALID,0,VALID,100.591,VALID,0,VALID,25.4482,VALID,121,VALID,0.832422,
2012-07-23, 02:39:04,VALID,1008,VALID,0,VALID,100.668,VALID,0.112112,VALID,25.4482,VALID,126,VALID,0.676953,
2012-07-23, 02:40:04,VALID,1008,VALID,0,VALID,100.721,VALID,0.112112,VALID,25.4287,VALID,130,VALID,0.414063,
2012-07-23, 02:41:04,VALID,1007.97,VALID,0,VALID,100.881,VALID,0.112112,VALID,25.3877,VALID,130,VALID,0.6375,
2012-07-23, 02:42:04,VALID,1007.97,VALID,0,VALID,100.896,VALID,0,VALID,25.4092,VALID,130,VALID,0.38125,
2012-07-23, 02:43:04,VALID,1007.96,VALID,0,VALID,100.973,VALID,0.112112,VALID,25.4092,VALID,130,VALID,0.451953,
2012-07-23, 02:44:04,VALID,1007.99,VALID,0,VALID,101.034,VALID,0.112112,VALID,25.3897,VALID,130,VALID,0.158594,
2012-07-23, 02:45:04,VALID,1007.96,VALID,0,VALID,101.026,VALID,0.112112,VALID,25.4092,VALID,130,VALID,0.00273437,
2012-07-23, 02:46:04,VALID,1007.96,VALID,0,VALID,101.064,VALID,0,VALID,25.4092,VALID,130,VALID,0.242188,
2012-07-23, 02:47:04,VALID,1007.98,VALID,0,VALID,101.14,VALID,0.112112,VALID,25.4092,VALID,130,VALID,0.156641,
2012-07-23, 02:48:04,VALID,1007.96,VALID,0,VALID,101.201,VALID,0.112112,VALID,25.4092,VALID,130,VALID,0.0191406,
2012-07-23, 02:49:04,VALID,1007.97,VALID,0,VALID,101.316,VALID,0.112112,VALID,25.4092,VALID,130,VALID,0.362109,
2012-07-23, 02:50:04,VALID,1007.95,VALID,0,VALID,101.163,VALID,0,VALID,25.4092,VALID,130,VALID,0.009375,
2012-07-23, 02:51:04,VALID,1007.96,VALID,0,VALID,101.339,VALID,0.112112,VALID,25.4092,VALID,130,VALID,0.449219,
2012-07-23, 02:52:04,VALID,1007.96,VALID,0,VALID,101.224,VALID,0.112112,VALID,25.4287,VALID,130,VALID,0.310156,
2012-07-23, 02:53:04,VALID,1007.96,VALID,0,VALID,101.362,VALID,0,VALID,25.4072,VALID,130,VALID,0,
2012-07-23, 02:54:04,VALID,1007.96,VALID,0,VALID,101.24,VALID,0,VALID,25.4287,VALID,130,VALID,0.00429688,
2012-07-23, 02:55:04,VALID,1007.98,VALID,0,VALID,101.27,VALID,0,VALID,25.4092,VALID,130,VALID,0.124609,
2012-07-23, 02:56:04,VALID,1007.96,VALID,0,VALID,101.102,VALID,0.112112,VALID,25.3897,VALID,101,VALID,0.557422,
2012-07-23, 02:57:04,VALID,1008,VALID,0,VALID,101.224,VALID,0,VALID,25.3702,VALID,86,VALID,0.514063,
2012-07-23, 02:58:04,VALID,1007.96,VALID,0,VALID,101.514,VALID,0,VALID,25.3312,VALID,72,VALID,0.537109,
2012-07-23, 02:59:04,VALID,1007.98,VALID,0,VALID,101.712,VALID,0,VALID,25.3117,VALID,72,VALID,0.574219,
2012-07-23, 03:00:04,VALID,1007.98,VALID,0,VALID,101.895,VALID,0,VALID,25.2532,VALID,68,VALID,0.617188,
2012-07-23, 03:01:04,VALID,1007.96,VALID,0,VALID,102.124,VALID,0,VALID,25.2337,VALID,68,VALID,0.45625,
2012-07-23, 03:02:04,VALID,1007.96,VALID,0,VALID,102.254,VALID,0,VALID,25.1947,VALID,68,VALID,0.221875,
2012-07-23, 03:03:04,VALID,1007.97,VALID,0,VALID,102.551,VALID,0,VALID,25.1752,VALID,68,VALID,0.240234,
2012-07-23, 03:04:04,VALID,1007.97,VALID,0,VALID,102.749,VALID,0.112112,VALID,25.1752,VALID,68,VALID,0.348828,
2012-07-23, 03:05:04,VALID,1007.98,VALID,0,VALID,102.864,VALID,0,VALID,25.1167,VALID,68,VALID,0.596484,
2012-07-23, 03:06:04,VALID,1007.98,VALID,0,VALID,103.009,VALID,0,VALID,25.0973,VALID,68,VALID,0.625,
2012-07-23, 03:07:04,VALID,1007.98,VALID,0,VALID,103.001,VALID,0,VALID,25.0778,VALID,68,VALID,0.402734,
2012-07-23, 03:08:04,VALID,1007.96,VALID,0,VALID,103.176,VALID,0,VALID,25.0388,VALID,68,VALID,0.182422,
2012-07-23, 03:09:04,VALID,1007.93,VALID,0,VALID,103.253,VALID,0,VALID,25.0388,VALID,68,VALID,0.416797,
2012-07-23, 03:10:04,VALID,1007.92,VALID,0,VALID,103.245,VALID,0,VALID,24.9998,VALID,68,VALID,0.602344,
2012-07-23, 03:11:04,VALID,1007.95,VALID,0,VALID,103.283,VALID,0,VALID,24.9784,VALID,68,VALID,0.428125,
2012-07-23, 03:12:04,VALID,1007.97,VALID,0,VALID,103.314,VALID,0,VALID,24.9803,VALID,68,VALID,0.489844,
2012-07-23, 03:13:04,VALID,1007.96,VALID,0,VALID,103.39,VALID,0,VALID,24.9394,VALID,68,VALID,0.346094,
2012-07-23, 03:14:04,VALID,1007.99,VALID,0,VALID,103.474,VALID,0,VALID,24.9413,VALID,68,VALID,0.397656,
2012-07-23, 03:15:04,VALID,1008.01,VALID,0,VALID,103.626,VALID,0.112112,VALID,24.9004,VALID,69,VALID,0.555078,
2012-07-23, 03:16:04,VALID,1008.01,VALID,0,VALID,103.695,VALID,0.112112,VALID,24.9004,VALID,58,VALID,0.658984,
2012-07-23, 03:17:04,VALID,1008,VALID,0,VALID,103.687,VALID,0,VALID,24.9218,VALID,58,VALID,0.677734,
2012-07-23, 03:18:04,VALID,1008,VALID,0,VALID,103.703,VALID,0,VALID,24.9218,VALID,58,VALID,0.563672,
2012-07-23, 03:19:04,VALID,1008.01,VALID,0,VALID,103.718,VALID,0,VALID,24.9218,VALID,57,VALID,0.288281,
2012-07-23, 03:20:04,VALID,1007.99,VALID,0,VALID,103.703,VALID,0.112112,VALID,24.9199,VALID,55,VALID,1.29219,
2012-07-23, 03:21:04,VALID,1007.99,VALID,0,VALID,103.687,VALID,0,VALID,24.9803,VALID,98,VALID,0.317969,
2012-07-23, 03:22:04,VALID,1007.99,VALID,0,VALID,103.558,VALID,0,VALID,24.9998,VALID,104,VALID,0.0199219,
2012-07-23, 03:23:04,VALID,1007.97,VALID,0,VALID,103.375,VALID,0,VALID,25.0193,VALID,104,VALID,0.520312,
2012-07-23, 03:24:04,VALID,1007.96,VALID,0,VALID,103.237,VALID,0.112112,VALID,25.0583,VALID,104,VALID,0.31875,
2012-07-23, 03:25:04,VALID,1007.94,VALID,0,VALID,103.047,VALID,0,VALID,25.0583,VALID,104,VALID,0.254297,
2012-07-23, 03:26:04,VALID,1007.94,VALID,0,VALID,102.978,VALID,0,VALID,25.0564,VALID,123,VALID,0.754687,
2012-07-23, 03:27:04,VALID,1007.95,VALID,0,VALID,102.795,VALID,0,VALID,25.0973,VALID,166,VALID,0.850391,
2012-07-23, 03:28:04,VALID,1007.92,VALID,0,VALID,102.216,VALID,0,VALID,25.1343,VALID,184,VALID,1.41719,
2012-07-23, 03:29:04,VALID,1007.92,VALID,0,VALID,101.651,VALID,0,VALID,25.2123,VALID,122,VALID,1.37852,
2012-07-23, 03:30:04,VALID,1007.94,VALID,0,VALID,101.301,VALID,0,VALID,25.2532,VALID,158,VALID,0.947266,
2012-07-23, 03:31:04,VALID,1007.95,VALID,0,VALID,101.125,VALID,0,VALID,25.2922,VALID,152,VALID,1.10938,
2012-07-23, 03:32:04,VALID,1007.95,VALID,0,VALID,101.034,VALID,0,VALID,25.2727,VALID,181,VALID,0.961328,
2012-07-23, 03:33:04,VALID,1007.98,VALID,0,VALID,100.957,VALID,0,VALID,25.2513,VALID,157,VALID,1.26133,
2012-07-23, 03:34:04,VALID,1007.96,VALID,0,VALID,100.721,VALID,0,VALID,25.2727,VALID,151,VALID,1.16289,
2012-07-23, 03:35:04,VALID,1007.97,VALID,0,VALID,100.66,VALID,0,VALID,25.2922,VALID,152,VALID,1.19805,
2012-07-23, 03:36:04,VALID,1007.99,VALID,0,VALID,100.546,VALID,0,VALID,25.2513,VALID,147,VALID,1.64219,
2012-07-23, 03:37:04,VALID,1007.97,VALID,0,VALID,100.561,VALID,0,VALID,25.2513,VALID,171,VALID,0.833203,
2012-07-23, 03:38:04,VALID,1008,VALID,0,VALID,100.347,VALID,0,VALID,25.2532,VALID,159,VALID,0.810156,
2012-07-23, 03:39:04,VALID,1008,VALID,0,VALID,100.515,VALID,0.112112,VALID,25.2513,VALID,118,VALID,0.848437,
2012-07-23, 03:40:04,VALID,1008,VALID,0,VALID,100.363,VALID,0.112112,VALID,25.2513,VALID,165,VALID,1.32344,
2012-07-23, 03:41:04,VALID,1007.98,VALID,0,VALID,100.134,VALID,0,VALID,25.2532,VALID,133,VALID,0.744141,
2012-07-23, 03:42:04,VALID,1008.03,VALID,0,VALID,100.164,VALID,0.112112,VALID,25.2123,VALID,146,VALID,1.64727,
2012-07-23, 03:43:04,VALID,1008.01,VALID,0,VALID,99.783,VALID,0,VALID,25.2337,VALID,165,VALID,1.78906,
2012-07-23, 03:44:04,VALID,1008.02,VALID,0,VALID,99.2492,VALID,0.112112,VALID,25.2727,VALID,138,VALID,1.01211,